Wind_Speed
20 18 17 18 19 20 19 19 19 18 19 19 20 22 22 23 24 25 26 27 26 25 24 23 21 19 22 24 22 23 23 20 17 16 14 14 14 13 12 12 11 12 10
21 20 19 21 22 22 21 21 21 21 20 21 22 23 23 24 26 26 27 28 29 30 29 28 28 25 23 25 28 23 23 22 19 18 17 18 16 15 14 14 13 13 11
21 21 22 22 23 24 24 24 23 23 21 21 21 22 23 25 26 28 30 31 32 33 33 33 33 32 29 27 29 29 25 23 21 19 20 21 19 17 16 16 15 14 12
22 22 23 24 25 26 26 26 25 25 24 23 24 25 26 28 29 31 32 34 35 36 37 38 38 38 37 33 28 32 29 29 27 24 21 24 22 20 18 18 18 15 13
23 24 25 26 27 28 28 28 27 27 27 27 27 28 29 30 33 34 36 37 38 40 42 43 43 44 44 42 38 32 34 30 29 28 26 26 25 23 21 20 19 17 15
25 25 27 29 30 30 30 30 30 30 31 31 33 35 37 37 38 37 39 41 43 45 47 48 48 50 49 50 47 41 35 35 32 29 30 28 28 26 24 23 21 19 16
26 27 29 30 32 32 33 33 32 32 33 37 40 41 42 41 44 45 50 51 48 48 50 51 57 56 57 56 56 49 41 39 36 33 29 30 31 30 26 25 22 20 18
27 28 30 32 32 32 34 34 34 34 37 41 44 45 46 46 50 50 51 52 55 58 58 59 58 62 63 64 63 58 51 44 40 36 32 32 32 33 29 28 24 22 19
28 29 30 32 33 34 34 34 35 37 41 42 43 44 48 52 55 56 51 51 46 38 37 39 42 52 63 68 68 65 57 51 45 39 37 33 34 35 33 30 27 24 21
29 29 31 32 34 35 34 34 36 39 44 43 41 40 43 47 50 58 51 41 37 35 36 36 36 43 52 62 69 69 58 59 52 43 38 35 35 37 35 32 29 26 22
29 30 32 32 34 34 35 35 37 41 43 42 41 42 43 42 43 45 53 31 35 38 35 35 35 34 38 57 62 61 58 57 57 51 41 38 37 38 37 34 31 27 23
29 31 33 33 34 34 34 36 39 40 41 40 40 41 42 41 40 42 46 41 39 40 36 38 37 35 34 45 58 66 70 49 63 55 47 40 39 38 38 36 33 29 25
30 32 33 33 34 34 34 37 39 40 39 38 39 40 39 38 38 39 42 44 44 45 43 38 30 30 32 35 49 64 58 55 63 60 53 42 40 39 39 38 34 30 26
31 32 32 33 33 33 34 37 39 40 38 37 38 39 39 37 38 39 41 42 46 47 44 40 31 31 31 37 38 63 59 59 58 63 54 44 39 40 40 40 36 32 27
31 31 32 32 33 33 35 37 40 39 38 36 37 39 40 38 38 39 39 39 42 48 47 40 34 26 27 33 36 64 75 51 67 61 55 48 41 41 42 41 38 34 29
31 32 32 33 32 33 35 39 40 38 36 36 38 39 39 38 39 39 38 39 41 43 49 41 36 33 31 35 36 58 78 53 59 65 56 49 44 41 41 42 39 35 29
32 32 32 33 32 33 36 39 40 37 35 36 38 39 40 39 38 38 38 39 41 42 43 38 28 33 28 33 38 56 74 47 63 64 56 53 46 43 44 43 41 36 30
32 32 32 32 32 34 37 40 40 36 36 37 38 38 38 38 38 36 38 38 41 39 39 41 37 28 25 31 35 53 65 41 61 59 59 53 46 44 45 44 41 37 32
31 32 32 32 33 35 38 39 38 36 36 38 37 37 37 37 37 34 37 36 39 34 32 37 33 26 25 19 27 32 72 40 59 57 58 54 47 44 46 45 42 38 33
31 31 32 32 33 36 39 39 37 35 36 38 36 35 36 37 37 34 36 35 34 29 30 28 22 19 19 20 23 36 68 36 60 62 51 49 45 45 47 46 42 40 34
30 31 32 32 33 36 38 38 36 35 36 38 35 34 33 35 33 32 35 36 31 24 27 26 25 7 8 18 23 52 52 37 55 56 51 49 43 48 48 46 43 40 34
30 31 32 32 33 36 37 36 36 37 38 38 36 36 34 34 32 31 31 31 27 24 24 19 18 13 4 11 30 65 46 33 53 55 52 49 45 49 51 48 45 41 35
30 31 31 32 34 35 36 36 36 38 39 37 38 38 37 34 33 31 28 26 24 19 26 18 18 12 8 15 38 48 37 47 42 63 53 50 46 51 53 50 46 41 36
30 30 30 32 34 35 36 35 36 39 39 38 39 38 37 33 31 29 27 22 22 19 20 21 19 9 14 21 43 37 52 43 55 59 54 53 50 53 53 50 46 42 37
30 30 30 31 34 34 35 34 36 38 39 38 38 35 32 29 27 23 23 21 20 18 17 10 15 15 21 37 43 46 34 32 55 55 54 53 54 53 55 52 49 43 38
29 30 29 31 33 34 35 33 35 37 37 38 32 27 24 24 20 19 20 20 21 16 12 12 11 19 23 32 49 48 39 40 51 59 54 57 52 55 58 55 51 46 42
Wind_Direction
310 311 311 311 311 310 310 309 305 298 289 281 275 272 270 269 266 267 270 271 270 268 268 265 261 267 269 275 275 274 266 262 265 256 233 226 233 237 236 237 232 233 222
305 307 308 308 309 310 310 309 306 300 292 286 282 277 273 271 269 268 267 268 270 268 265 263 262 260 256 259 268 271 264 257 252 257 242 228 224 229 229 232 228 234 229
302 303 304 305 308 308 308 308 305 300 295 290 286 284 281 277 276 273 271 268 266 266 265 263 260 256 255 252 259 262 256 255 250 247 243 233 222 223 224 226 227 228 233
298 300 301 305 305 305 306 306 303 299 295 291 289 288 286 284 282 279 277 275 271 268 265 263 259 256 251 247 250 255 253 249 254 248 242 234 224 222 220 223 226 224 229
294 297 301 303 303 304 306 305 302 297 293 292 290 287 285 284 283 282 280 276 273 269 265 260 257 254 251 246 243 240 249 249 246 250 241 232 223 223 218 220 225 222 224
291 296 299 300 303 305 305 303 299 297 296 296 297 297 294 292 287 286 283 284 284 280 275 268 257 251 247 244 241 235 235 243 242 242 239 233 224 222 220 217 221 218 222
291 295 298 300 302 305 305 302 300 301 304 305 305 302 300 296 295 297 297 297 294 286 278 268 263 254 244 240 238 232 226 234 235 237 236 236 228 220 221 216 219 216 222
288 293 295 299 302 303 301 300 303 306 309 309 307 304 302 300 300 301 303 304 301 297 290 281 267 254 246 236 231 229 223 221 232 232 229 232 230 224 217 219 213 214 218
286 289 293 299 300 300 299 302 306 308 310 309 308 305 303 303 303 303 306 310 307 304 302 297 282 258 247 236 229 222 220 218 218 228 227 225 228 225 217 218 211 211 214
283 288 294 297 298 299 301 305 308 310 311 311 307 303 301 303 306 303 306 312 303 303 299 296 296 279 252 239 230 218 215 216 213 217 227 223 225 224 218 214 212 209 211
283 290 294 296 297 298 302 305 309 311 312 310 306 302 302 304 304 305 308 306 296 300 294 288 285 287 270 244 233 220 205 215 211 208 217 225 222 221 216 213 212 207 208
285 290 293 295 297 299 302 306 310 312 311 308 303 302 303 303 303 302 302 303 297 300 298 292 285 279 273 256 237 219 209 210 208 209 208 215 217 219 212 211 211 205 205
284 290 293 295 297 300 303 307 310 312 308 304 300 301 301 299 299 298 298 300 297 299 300 299 287 280 274 265 248 219 210 209 206 206 203 206 211 215 209 209 208 203 202
284 288 292 294 295 299 304 308 312 310 305 302 299 299 299 299 297 297 298 302 303 303 301 302 293 286 272 264 252 218 208 203 209 205 203 202 206 210 207 206 205 202 198
284 288 291 292 295 299 304 310 311 308 303 299 298 299 298 297 295 296 298 299 301 304 303 305 308 292 280 255 248 218 218 203 209 207 199 200 203 207 207 203 203 201 196
284 288 291 291 294 299 306 310 311 306 302 299 298 297 298 297 296 294 298 297 299 300 298 305 303 292 277 251 245 218 203 201 197 206 198 197 201 205 202 201 200 201 193
286 290 291 292 298 303 308 310 310 308 304 298 298 299 301 300 296 292 296 296 301 301 299 299 297 293 269 249 243 223 212 205 192 195 198 197 198 204 203 198 198 199 191
287 290 291 295 299 303 308 312 311 308 301 299 301 303 302 300 296 293 297 297 302 301 300 302 300 280 262 250 238 222 205 191 194 195 197 197 194 200 200 195 196 197 190
287 289 292 296 300 305 310 312 308 304 301 300 304 304 303 301 298 295 298 300 304 301 304 304 313 280 262 235 235 218 211 195 190 193 197 194 192 196 198 192 195 197 190
287 289 293 295 301 305 310 310 305 302 302 302 304 306 305 303 302 300 301 301 304 304 313 298 310 286 241 223 235 216 211 192 188 193 190 187 191 196 196 191 193 197 189
287 289 291 295 300 305 309 307 304 304 304 304 308 308 306 303 303 299 302 303 307 300 307 293 323 297 223 226 222 200 202 171 183 191 182 183 183 194 192 189 194 196 190
285 287 291 295 300 306 308 307 306 306 305 308 308 308 307 304 305 297 295 299 306 300 313 309 331 298 258 196 199 189 202 179 178 188 182 183 185 192 190 187 193 195 191
282 286 291 297 302 307 307 307 306 304 305 308 307 308 305 304 306 295 291 297 294 301 289 293 287 296 218 196 186 195 183 182 196 189 184 183 186 193 189 186 193 193 192
282 288 292 298 303 307 306 305 306 303 306 309 306 305 301 301 304 294 293 296 291 296 289 276 292 229 184 193 195 205 189 181 183 188 187 184 189 192 188 186 192 193 194
283 287 293 299 304 305 303 305 305 304 309 311 308 304 304 301 300 294 293 293 297 287 289 250 254 202 194 202 198 186 190 171 183 184 184 184 194 191 187 188 192 193 195
282 287 294 301 304 302 303 307 305 308 314 315 315 316 314 306 298 294 297 290 302 282 274 247 208 202 194 186 186 188 180 204 179 182 188 191 197 192 186 189 193 194 195
Height
3171 3170 3168 3167 3166 3165 3163 3161 3160 3159 3158 3157 3156 3156 3156 3155 3155 3155 3154 3153 3153 3153 3153 3153 3152 3153 3155 3155 3155 3155 3156 3157 3156 3156 3154 3156 3158 3159 3162 3163 3165 3166 3166
3166 3165 3164 3162 3161 3159 3157 3156 3155 3153 3152 3151 3150 3149 3149 3149 3148 3149 3149 3149 3148 3148 3147 3148 3148 3148 3148 3150 3150 3152 3152 3153 3152 3152 3152 3153 3155 3156 3159 3161 3162 3164 3165
3161 3160 3158 3157 3155 3153 3152 3150 3149 3147 3146 3145 3144 3143 3142 3141 3142 3141 3141 3141 3141 3141 3141 3142 3142 3142 3143 3144 3146 3146 3148 3148 3149 3148 3150 3151 3151 3153 3155 3158 3159 3162 3164
3155 3154 3153 3151 3150 3148 3146 3144 3142 3141 3139 3138 3137 3136 3135 3134 3133 3133 3133 3133 3133 3133 3133 3134 3135 3135 3136 3138 3139 3141 3142 3142 3143 3145 3145 3147 3148 3149 3152 3154 3156 3159 3162
3150 3148 3147 3146 3144 3141 3139 3137 3136 3134 3132 3131 3130 3130 3128 3128 3125 3124 3122 3121 3121 3122 3122 3124 3123 3126 3127 3128 3130 3133 3134 3136 3137 3139 3141 3142 3143 3145 3148 3150 3153 3156 3158
3143 3142 3140 3139 3136 3134 3132 3130 3129 3127 3124 3122 3120 3118 3116 3115 3115 3114 3113 3112 3111 3110 3110 3110 3112 3113 3115 3117 3119 3121 3126 3128 3130 3133 3135 3136 3138 3140 3144 3146 3149 3152 3155
3136 3135 3133 3131 3129 3126 3124 3122 3120 3118 3115 3110 3108 3106 3103 3102 3100 3098 3095 3093 3095 3095 3094 3094 3093 3095 3099 3101 3105 3109 3112 3118 3122 3125 3128 3130 3133 3135 3139 3142 3145 3148 3151
3130 3128 3127 3124 3122 3120 3117 3114 3111 3108 3106 3101 3098 3093 3090 3090 3086 3085 3083 3079 3075 3071 3069 3069 3072 3073 3075 3082 3086 3094 3100 3104 3112 3116 3119 3123 3126 3130 3134 3138 3140 3144 3147
3124 3122 3120 3118 3115 3113 3110 3106 3103 3099 3097 3094 3089 3084 3079 3075 3070 3070 3070 3066 3061 3056 3053 3050 3047 3048 3051 3056 3066 3074 3084 3091 3097 3107 3111 3115 3119 3124 3128 3133 3136 3139 3143
3117 3116 3114 3112 3109 3106 3102 3098 3095 3092 3088 3085 3081 3077 3073 3067 3061 3056 3060 3053 3049 3045 3042 3040 3036 3033 3032 3034 3043 3055 3068 3076 3084 3094 3103 3107 3112 3117 3122 3127 3132 3135 3139
3111 3109 3107 3105 3102 3098 3094 3091 3087 3084 3079 3076 3072 3068 3064 3059 3054 3046 3039 3048 3041 3036 3033 3028 3025 3021 3019 3018 3024 3038 3049 3060 3071 3079 3092 3098 3105 3110 3116 3122 3128 3131 3135
3103 3102 3100 3097 3094 3091 3087 3083 3079 3076 3071 3067 3063 3059 3055 3051 3045 3039 3033 3032 3029 3025 3022 3019 3014 3011 3009 3007 3010 3022 3033 3043 3057 3068 3077 3087 3096 3102 3109 3116 3123 3127 3131
3096 3094 3092 3089 3086 3083 3079 3075 3071 3067 3063 3059 3055 3051 3047 3043 3037 3033 3026 3023 3017 3013 3009 3007 3004 3001 2999 2997 2998 3008 3017 3028 3044 3057 3067 3077 3088 3094 3102 3110 3118 3123 3127
3089 3086 3084 3082 3079 3075 3071 3067 3063 3059 3054 3052 3048 3043 3039 3035 3030 3025 3019 3013 3005 3001 2996 2994 2993 2989 2988 2987 2987 2995 3002 3015 3030 3046 3059 3070 3079 3088 3095 3104 3112 3118 3123
3081 3079 3077 3075 3071 3068 3064 3060 3056 3051 3047 3044 3039 3034 3030 3026 3022 3017 3011 3007 3000 2989 2980 2982 2978 2978 2976 2975 2976 2984 2992 3006 3020 3036 3048 3061 3072 3081 3090 3098 3107 3114 3119
3074 3072 3069 3067 3064 3060 3055 3051 3047 3044 3039 3036 3030 3025 3021 3017 3012 3007 3002 2998 2992 2986 2971 2974 2970 2967 2965 2963 2965 2972 2979 2994 3008 3027 3040 3053 3065 3074 3083 3093 3102 3110 3115
3065 3063 3061 3058 3054 3051 3047 3042 3038 3034 3030 3026 3021 3016 3011 3007 3002 2998 2993 2988 2984 2978 2968 2962 2960 2956 2954 2952 2952 2959 2973 2986 3004 3021 3034 3046 3057 3068 3077 3088 3097 3106 3111
3057 3055 3052 3049 3046 3043 3038 3034 3029 3026 3021 3017 3013 3007 3002 2998 2993 2989 2984 2979 2975 2969 2961 2952 2952 2948 2944 2943 2944 2950 2969 2978 2996 3012 3029 3042 3052 3063 3072 3083 3092 3102 3107
3049 3047 3044 3042 3039 3035 3030 3026 3021 3017 3013 3008 3003 2998 2994 2989 2984 2981 2976 2972 2967 2960 2954 2947 2941 2939 2936 2938 2943 2948 2957 2978 2994 3010 3024 3037 3047 3058 3067 3078 3088 3098 3103
3042 3039 3037 3034 3031 3027 3023 3018 3013 3009 3004 2999 2996 2991 2987 2981 2975 2971 2968 2964 2959 2952 2947 2941 2934 2931 2930 2934 2933 2943 2952 2975 2992 3005 3019 3032 3042 3053 3064 3074 3085 3094 3100
3034 3032 3030 3027 3024 3020 3014 3009 3004 3000 2995 2991 2988 2984 2979 2973 2969 2964 2960 2956 2953 2946 2942 2937 2931 2929 2930 2931 2929 2943 2960 2973 2988 3000 3012 3024 3036 3047 3058 3069 3081 3091 3097
3025 3024 3022 3019 3016 3012 3006 3001 2995 2990 2986 2983 2978 2975 2971 2966 2962 2957 2955 2951 2947 2942 2936 2930 2927 2928 2930 2932 2932 2948 2961 2969 2985 2996 3009 3021 3032 3043 3054 3065 3078 3087 3094
3018 3016 3014 3011 3008 3003 2997 2993 2987 2982 2978 2975 2970 2966 2963 2958 2954 2949 2949 2945 2941 2937 2934 2931 2929 2930 2932 2933 2938 2953 2962 2973 2979 2994 3005 3017 3028 3039 3051 3062 3075 3083 3091
3010 3009 3007 3004 2999 2995 2989 2985 2979 2974 2971 2968 2963 2959 2954 2950 2946 2942 2941 2939 2934 2931 2930 2928 2926 2928 2929 2936 2948 2955 2957 2967 2977 2992 3002 3013 3024 3035 3048 3059 3071 3080 3087
3003 3001 3000 2997 2991 2987 2982 2977 2971 2967 2963 2960 2955 2950 2946 2942 2939 2937 2935 2933 2930 2929 2926 2926 2924 2925 2928 2933 2942 2950 2956 2961 2973 2987 2999 3010 3019 3032 3044 3055 3066 3076 3084
2995 2993 2992 2988 2984 2978 2974 2969 2965 2960 2956 2953 2948 2942 2939 2935 2933 2932 2931 2929 2926 2925 2924 2923 2923 2927 2928 2935 2942 2952 2960 2966 2973 2985 2994 3005 3016 3028 3038 3049 3063 3071 3078